Back to catalog

FENGYUN 1C DEB

AliveSSO
NORAD 30852·DEBRIS·🇨🇳 China

Launched May 10, 1999 from Taiyuan Satellite Launch Center

Loading…

Next Passes (next 24 hours)

TLE

FreshSource: Space-Track

Epoch: Sep 14, 2026, 12:23 UTC

1 30852U 99025AWN 26257.51624201  .00000427  00000-0  25862-3 0  9995
2 30852  98.7215 272.2522 0056553 172.0976 188.1100 14.10700758  2622

Track FENGYUN 1C DEB in real time with AllMySat

Download on the App Store